TimeEST,TemperatureF,Dew PointF,Humidity,Sea Level PressureIn,VisibilityMPH,Wind Direction,Wind SpeedMPH,Gust SpeedMPH,PrecipitationIn,Events,Conditions,WindDirDegrees,DateUTC
12:53 AM,52.0,41.0,66,29.97,10.0,SW,13.8,-,N/A,,Clear,220,2012-11-23 05:53:00
1:53 AM,52.0,39.9,63,29.95,10.0,SSW,10.4,-,N/A,,Scattered Clouds,200,2012-11-23 06:53:00
2:53 AM,51.1,41.0,68,29.94,10.0,SSW,8.1,-,N/A,,Mostly Cloudy,200,2012-11-23 07:53:00
3:53 AM,53.1,39.9,61,29.91,10.0,SSW,10.4,-,N/A,,Overcast,210,2012-11-23 08:53:00
4:33 AM,53.6,41.0,62,29.91,10.0,SW,12.7,18.4,N/A,,Overcast,220,2012-11-23 09:33:00
4:49 AM,53.6,41.0,62,29.90,10.0,SW,9.2,-,N/A,,Overcast,220,2012-11-23 09:49:00
4:53 AM,53.1,41.0,64,29.90,10.0,SSW,10.4,-,N/A,,Overcast,210,2012-11-23 09:53:00
5:53 AM,53.1,44.1,71,29.89,10.0,SW,9.2,-,0.00,Rain,Light Rain,220,2012-11-23 10:53:00
6:41 AM,51.8,46.4,82,29.89,8.0,SW,9.2,-,0.01,Rain,Light Rain,220,2012-11-23 11:41:00
6:53 AM,51.1,46.0,83,29.89,10.0,SW,11.5,-,0.01,Rain,Light Rain,220,2012-11-23 11:53:00
7:53 AM,51.1,48.0,89,29.90,8.0,WSW,11.5,-,0.00,,Overcast,240,2012-11-23 12:53:00
8:24 AM,51.8,44.6,76,29.91,10.0,West,13.8,25.3,N/A,,Overcast,260,2012-11-23 13:24:00
8:53 AM,46.9,39.0,74,29.93,10.0,West,17.3,-,N/A,,Mostly Cloudy,280,2012-11-23 13:53:00
9:53 AM,42.1,35.1,76,29.94,10.0,West,16.1,24.2,N/A,,Overcast,270,2012-11-23 14:53:00
10:53 AM,44.1,36.0,73,29.95,10.0,West,21.9,27.6,N/A,,Scattered Clouds,270,2012-11-23 15:53:00
11:53 AM,45.0,33.1,63,29.94,10.0,West,23.0,31.1,N/A,,Scattered Clouds,270,2012-11-23 16:53:00
12:29 PM,44.6,32.0,61,29.93,10.0,West,20.7,33.4,N/A,,Mostly Cloudy,270,2012-11-23 17:29:00
12:53 PM,43.0,30.9,62,29.94,10.0,West,24.2,35.7,N/A,,Overcast,270,2012-11-23 17:53:00
1:53 PM,41.0,27.0,57,29.94,10.0,West,24.2,36.8,N/A,,Overcast,270,2012-11-23 18:53:00
2:53 PM,37.0,26.1,65,29.98,9.0,West,20.7,32.2,0.00,Snow,Light Snow,280,2012-11-23 19:53:00
3:53 PM,36.0,25.0,64,30.01,9.0,WNW,20.7,33.4,0.00,Snow,Light Snow,290,2012-11-23 20:53:00
4:20 PM,35.6,26.6,70,30.01,10.0,West,23.0,31.1,0.00,,Overcast,280,2012-11-23 21:20:00
4:53 PM,34.0,21.9,61,30.06,9.0,West,31.1,44.9,0.00,Snow,Light Snow,280,2012-11-23 21:53:00
5:02 PM,33.8,21.2,60,30.05,9.0,West,23.0,40.3,0.00,Snow,Light Snow,280,2012-11-23 22:02:00
5:23 PM,32.0,23.0,69,30.06,9.0,West,25.3,34.5,0.00,Snow,Light Snow,280,2012-11-23 22:23:00
5:53 PM,32.0,21.9,66,30.10,9.0,WNW,15.0,33.4,0.00,Snow,Light Snow,290,2012-11-23 22:53:00
6:21 PM,30.2,19.4,64,30.09,9.0,West,18.4,25.3,0.00,,Overcast,280,2012-11-23 23:21:00
6:53 PM,30.9,19.0,61,30.12,9.0,WNW,19.6,28.8,0.00,,Overcast,290,2012-11-23 23:53:00
7:53 PM,30.9,19.0,61,30.13,10.0,West,15.0,-,N/A,,Overcast,270,2012-11-24 00:53:00
8:53 PM,30.9,19.0,61,30.14,10.0,West,15.0,-,N/A,,Overcast,270,2012-11-24 01:53:00
9:53 PM,30.9,19.0,61,30.15,10.0,West,15.0,20.7,N/A,,Overcast,280,2012-11-24 02:53:00
10:53 PM,30.9,19.9,64,30.13,10.0,West,12.7,-,N/A,,Overcast,260,2012-11-24 03:53:00
11:53 PM,30.0,19.9,66,30.12,10.0,West,13.8,21.9,N/A,,Overcast,270,2012-11-24 04:53:00